Wind_Speed
5 14 12 11 10 8 7 7 6 6 7 7 4 4 4 4 5 5 6 8 9 10 10 10 8 7 7 7 7 6 2 1 3 3 4 4 7 9 12 14 11 7 11
5 12 10 10 9 8 7 6 6 6 7 7 5 4 2 2 3 4 5 7 8 9 10 9 7 7 6 6 5 3 0 2 3 4 4 3 6 10 12 16 11 6 10
1 8 10 9 9 8 7 6 6 6 6 7 7 5 3 2 2 3 4 5 7 8 10 10 8 7 6 5 4 2 0 2 4 5 5 6 6 6 10 12 10 5 9
6 6 9 7 8 8 7 6 6 6 6 7 7 6 5 3 3 4 6 6 7 8 10 10 10 9 7 6 5 3 2 1 2 3 7 7 2 5 8 10 11 5 9
10 6 4 5 6 7 7 6 6 6 7 8 9 9 8 7 5 6 7 7 7 8 9 11 11 10 9 7 6 5 4 2 2 4 1 5 4 3 6 10 9 7 9
8 2 4 3 5 7 7 7 7 7 8 9 10 11 11 11 9 8 8 8 8 8 9 10 11 11 10 10 9 8 6 4 2 7 3 6 9 5 5 9 10 10 11
9 8 7 2 3 6 7 8 9 9 9 10 11 13 14 14 14 13 12 11 10 10 11 11 13 13 13 12 12 11 9 6 5 8 3 8 13 13 9 9 10 11 11
10 9 7 6 3 3 6 8 9 10 11 12 13 14 16 17 17 17 16 16 14 13 13 13 14 15 15 15 15 13 11 9 7 8 1 13 13 9 9 10 10 11 11
9 9 9 10 8 6 5 7 9 12 13 14 15 16 17 18 19 20 20 20 19 18 17 16 16 16 16 17 16 16 14 12 10 11 4 15 15 15 12 12 12 11 12
14 14 10 3 3 12 10 9 9 12 14 16 17 18 19 19 20 21 22 23 23 22 21 20 19 18 18 18 19 18 17 15 13 12 10 11 14 15 12 12 14 13 14
8 12 3 4 6 6 5 12 15 16 15 16 17 19 21 22 21 22 24 25 26 26 25 24 23 22 21 22 21 21 20 19 16 14 15 12 21 20 19 17 17 15 15
11 9 8 8 7 7 3 9 15 19 16 15 17 19 20 20 22 23 21 21 21 26 28 28 27 26 25 26 25 24 24 21 19 17 13 15 19 20 20 20 19 18 16
8 10 12 12 9 10 8 12 11 11 19 19 19 19 16 15 16 16 20 24 24 25 28 30 32 32 32 31 29 27 22 18 18 23 17 23 26 24 23 22 21 18 18
9 11 13 13 12 11 13 15 16 16 16 14 16 17 14 17 19 18 19 20 24 24 25 26 32 35 36 35 33 29 27 26 24 15 22 25 27 26 26 25 23 22 20
9 13 14 13 12 11 13 16 19 20 19 20 20 14 13 15 17 18 18 17 19 21 25 27 27 31 33 34 36 36 33 29 27 20 21 26 28 29 27 25 26 25 23
11 12 13 12 12 12 12 11 16 19 20 22 22 22 20 18 20 20 19 18 19 20 21 25 27 30 31 36 39 40 40 40 35 31 32 27 26 26 26 25 26 27 26
12 13 13 12 11 11 11 11 9 14 14 19 22 23 23 21 19 20 21 19 21 19 20 22 24 25 29 32 36 38 42 40 42 41 34 33 31 31 29 28 23 27 28
11 13 15 14 13 10 10 9 11 11 14 19 18 20 20 19 17 16 16 14 20 21 23 25 25 26 28 28 31 33 29 34 39 44 40 37 36 33 33 29 23 21 26
11 14 15 15 15 13 10 11 9 9 10 12 12 15 15 16 19 16 14 12 20 21 18 18 21 22 23 27 30 32 31 32 34 10 33 36 42 36 28 26 25 22 22
11 12 14 15 15 15 11 7 8 12 10 10 11 12 13 14 14 15 18 22 20 18 17 18 21 21 23 25 26 28 25 26 28 31 33 44 45 48 21 19 18 16 18
10 11 12 14 15 14 16 15 11 9 13 11 10 12 13 15 14 15 13 16 17 17 17 17 19 21 21 20 21 24 25 25 26 24 28 36 43 34 42 31 27 35 44
7 9 11 12 13 12 10 11 11 14 8 13 17 14 13 14 15 14 15 14 14 16 17 17 18 21 21 17 17 20 15 25 18 19 20 23 28 26 33 43 39 48 50
8 9 9 10 11 12 11 10 9 4 4 6 11 13 14 15 14 13 12 15 16 15 17 18 18 18 21 22 15 8 9 6 23 22 23 25 21 27 29 37 40 49 51
6 8 9 11 12 13 11 9 9 6 8 8 9 10 8 14 16 15 15 14 15 16 17 20 20 20 18 21 22 8 16 17 11 21 24 24 27 28 26 27 32 36 44
6 7 8 10 11 13 13 14 10 10 11 11 13 12 12 13 15 20 17 17 17 16 18 20 21 21 20 18 18 20 19 20 20 21 29 24 26 20 19 24 29 26 27
5 5 7 9 8 11 10 10 12 11 11 12 14 14 16 16 18 18 17 17 16 16 17 18 20 20 19 16 15 15 16 14 17 18 25 32 35 38 30 19 19 30 30
Wind_Direction
104 148 146 147 142 141 140 142 142 153 174 182 175 148 112 84 106 139 149 154 163 167 165 159 157 157 157 163 167 173 170 44 21 28 41 90 112 113 110 112 104 106 121
171 165 156 154 153 154 154 156 157 160 167 185 190 179 150 112 128 152 158 165 171 175 176 177 179 179 183 179 184 179 132 38 31 29 35 90 126 131 130 127 139 124 133
164 167 168 168 168 168 170 170 172 178 180 190 197 198 183 152 152 177 184 183 184 185 189 195 199 197 195 194 200 210 321 28 42 59 88 88 122 150 147 148 146 139 146
97 115 177 181 181 180 185 185 191 196 202 208 208 212 209 199 195 198 210 206 200 197 199 204 209 207 204 207 223 250 300 6 64 131 138 157 301 174 172 163 163 163 157
60 82 43 199 194 193 198 202 208 216 222 224 224 224 224 221 218 214 216 224 222 216 210 212 217 215 216 221 237 256 272 273 126 130 161 151 230 259 206 179 173 168 162
62 349 335 188 211 214 212 217 220 229 234 232 233 235 237 236 235 231 225 227 229 229 230 229 229 227 229 235 247 259 266 260 180 170 234 202 284 268 242 200 183 174 173
67 16 44 103 208 226 228 232 233 237 240 243 240 240 243 244 244 242 240 236 235 235 235 236 238 238 240 245 252 259 262 255 223 213 225 218 280 260 248 219 196 185 177
67 45 24 38 17 275 258 255 255 253 252 252 250 247 246 248 250 249 248 245 241 239 238 237 239 242 245 249 254 258 259 256 234 192 196 230 261 263 252 223 206 196 189
67 57 46 358 1 350 302 279 269 264 262 259 257 254 252 252 252 252 251 250 247 245 242 242 240 243 246 250 254 256 257 253 238 212 197 257 258 271 270 229 212 207 203
37 30 20 60 7 333 316 311 289 270 261 260 259 257 254 253 254 255 254 253 251 248 247 246 247 245 245 249 252 254 254 251 245 228 212 265 255 245 258 243 219 214 212
30 42 13 305 222 218 287 304 298 297 278 266 263 262 263 261 257 254 256 256 254 252 250 247 246 247 250 249 247 251 253 251 249 235 217 264 247 256 263 257 230 223 221
23 337 295 267 274 253 204 282 292 307 303 293 277 268 262 266 266 264 267 269 265 259 254 250 246 246 245 247 248 245 248 254 255 246 217 251 251 249 257 258 237 230 226
0 331 278 277 273 257 232 221 219 252 285 289 291 296 282 267 269 262 255 251 256 254 256 250 248 243 244 244 245 250 245 247 257 251 214 242 246 251 257 261 243 234 227
359 305 297 293 284 274 255 231 226 233 237 245 270 266 253 261 263 266 268 260 259 259 259 257 252 248 246 246 246 239 247 250 250 247 217 235 247 251 257 258 244 236 231
343 323 331 330 318 296 275 249 241 239 243 242 250 251 255 256 259 258 263 264 267 267 262 259 249 246 248 247 245 242 228 238 241 235 230 238 241 245 252 256 243 237 235
343 344 345 348 341 328 309 288 255 255 258 261 258 260 263 260 256 257 263 268 263 264 265 265 262 258 253 250 248 245 239 229 225 228 230 242 243 241 245 256 250 238 236
5 359 355 358 357 348 342 326 306 271 274 273 266 266 263 257 254 259 267 264 269 275 275 271 271 267 264 262 260 260 251 242 234 234 228 233 250 253 251 250 251 244 237
11 6 352 3 9 6 3 345 334 313 296 278 286 267 267 267 270 273 274 286 276 276 277 281 281 283 282 280 281 277 266 267 266 245 238 234 234 246 253 246 246 256 248
15 2 2 0 6 10 12 6 347 332 323 304 295 291 284 274 272 269 270 264 267 268 277 280 277 275 283 283 285 286 287 288 277 208 259 251 246 240 247 236 234 232 239
27 16 9 2 2 6 15 17 9 346 324 320 324 313 304 295 290 272 269 265 263 263 255 255 263 268 275 286 297 299 300 291 287 273 260 259 263 239 230 199 215 240 252
37 36 24 13 6 8 9 9 14 4 350 339 316 312 309 305 303 293 287 286 284 281 279 281 283 283 283 286 289 287 291 298 281 283 280 279 278 278 272 271 265 249 242
33 40 23 11 6 6 21 11 16 11 1 4 355 343 326 322 317 319 313 305 306 301 297 294 294 295 294 295 295 301 306 306 317 305 302 294 291 274 256 246 259 244 249
21 14 19 2 5 345 356 345 356 19 34 354 359 338 349 340 338 335 340 331 328 323 312 306 303 301 302 302 299 292 321 297 294 280 290 301 303 284 276 263 260 250 250
49 31 36 32 3 5 355 352 354 2 342 332 298 300 330 327 321 317 332 338 336 330 321 314 310 306 305 303 305 292 246 277 309 305 289 275 287 290 290 282 275 265 256
71 56 46 46 10 9 8 11 358 339 327 325 312 316 304 291 293 298 309 313 316 321 321 316 311 308 307 305 303 306 305 303 283 293 292 295 274 269 279 283 279 278 278
58 49 46 49 9 351 4 359 352 350 342 345 335 331 323 316 312 308 309 308 307 312 315 318 314 308 305 305 307 300 296 297 290 294 293 289 285 277 272 268 281 281 276
Height
1503 1506 1508 1510 1512 1514 1516 1518 1520 1521 1523 1526 1527 1528 1528 1529 1529 1531 1532 1533 1534 1536 1537 1538 1540 1541 1542 1542 1543 1543 1544 1543 1543 1543 1542 1542 1543 1543 1543 1544 1545 1546 1547
1505 1507 1509 1511 1513 1515 1517 1519 1521 1522 1524 1526 1528 1529 1530 1531 1531 1532 1533 1534 1535 1536 1538 1539 1540 1541 1542 1543 1543 1543 1544 1543 1543 1543 1542 1543 1543 1543 1544 1544 1545 1547 1548
1506 1508 1510 1512 1514 1516 1518 1519 1521 1524 1525 1527 1528 1530 1531 1531 1532 1533 1534 1535 1536 1537 1538 1540 1541 1542 1543 1543 1543 1544 1544 1544 1543 1543 1542 1543 1544 1544 1545 1546 1547 1548 1549
1508 1508 1511 1512 1515 1517 1519 1521 1523 1524 1526 1527 1529 1530 1532 1532 1533 1534 1535 1535 1536 1537 1538 1539 1541 1542 1542 1543 1544 1544 1544 1544 1545 1544 1544 1545 1545 1545 1545 1546 1547 1549 1550
1512 1510 1513 1514 1516 1517 1519 1521 1524 1525 1527 1528 1529 1530 1532 1533 1533 1534 1535 1536 1537 1538 1538 1539 1540 1541 1542 1542 1543 1544 1544 1544 1545 1545 1544 1544 1545 1546 1546 1547 1548 1549 1551
1514 1514 1514 1515 1517 1518 1519 1521 1523 1525 1527 1528 1529 1530 1531 1532 1533 1534 1535 1535 1536 1537 1538 1539 1539 1540 1541 1542 1542 1543 1544 1544 1545 1545 1545 1545 1544 1546 1547 1548 1548 1549 1550
1516 1513 1515 1516 1517 1519 1519 1521 1522 1524 1525 1527 1528 1529 1530 1531 1533 1533 1534 1535 1535 1536 1538 1538 1539 1540 1540 1541 1542 1542 1543 1543 1543 1544 1544 1544 1546 1547 1547 1548 1548 1549 1550
1516 1516 1515 1517 1518 1519 1520 1521 1522 1523 1524 1525 1526 1527 1528 1530 1531 1532 1534 1534 1535 1535 1536 1537 1537 1538 1538 1539 1540 1540 1541 1541 1542 1542 1543 1543 1545 1545 1546 1547 1548 1549 1550
1517 1517 1518 1517 1518 1519 1520 1520 1521 1522 1523 1524 1525 1525 1526 1527 1529 1530 1531 1532 1534 1534 1534 1535 1535 1535 1536 1537 1537 1537 1538 1539 1540 1541 1541 1542 1542 1543 1544 1545 1546 1548 1549
1517 1518 1519 1519 1520 1519 1519 1519 1519 1520 1520 1521 1522 1523 1523 1524 1525 1527 1528 1529 1530 1532 1532 1532 1534 1533 1533 1533 1534 1534 1535 1536 1537 1538 1539 1540 1540 1541 1542 1543 1544 1545 1547
1517 1519 1515 1515 1515 1516 1519 1519 1518 1519 1518 1518 1518 1519 1520 1521 1522 1523 1524 1525 1526 1528 1529 1529 1530 1531 1531 1529 1530 1531 1532 1532 1533 1535 1536 1536 1537 1538 1539 1540 1541 1543 1544
1516 1514 1511 1512 1514 1514 1515 1518 1518 1516 1516 1516 1515 1515 1516 1518 1518 1520 1520 1521 1522 1524 1525 1525 1526 1526 1526 1525 1525 1525 1525 1528 1528 1529 1530 1532 1533 1534 1535 1536 1537 1539 1541
1515 1511 1509 1511 1511 1511 1513 1512 1512 1514 1514 1512 1511 1512 1512 1513 1515 1516 1518 1517 1517 1518 1519 1519 1520 1519 1519 1519 1520 1520 1521 1520 1521 1523 1524 1526 1527 1528 1530 1531 1534 1536 1537
1514 1510 1510 1509 1509 1509 1509 1510 1510 1509 1509 1509 1508 1510 1510 1511 1511 1514 1513 1514 1514 1515 1514 1515 1514 1514 1513 1513 1514 1515 1515 1515 1515 1515 1517 1518 1521 1523 1524 1525 1527 1530 1532
1513 1509 1508 1507 1506 1505 1504 1505 1505 1505 1506 1506 1503 1504 1504 1506 1510 1508 1509 1509 1510 1511 1509 1510 1509 1508 1508 1508 1508 1508 1508 1508 1507 1511 1512 1512 1514 1516 1518 1519 1520 1523 1526
1513 1510 1507 1505 1503 1502 1501 1501 1501 1501 1501 1501 1501 1501 1502 1504 1505 1506 1506 1505 1504 1504 1504 1505 1505 1506 1503 1502 1500 1499 1497 1498 1500 1503 1506 1508 1509 1509 1510 1513 1515 1517 1520
1513 1509 1506 1505 1503 1501 1500 1499 1499 1499 1498 1497 1498 1500 1500 1500 1501 1502 1502 1502 1500 1500 1500 1500 1501 1500 1498 1497 1497 1496 1494 1495 1496 1497 1495 1500 1503 1504 1505 1506 1508 1512 1514
1514 1511 1506 1503 1501 1500 1499 1498 1497 1497 1497 1495 1496 1496 1497 1498 1497 1499 1499 1498 1496 1497 1496 1496 1495 1494 1493 1491 1490 1487 1474 1488 1487 1490 1493 1490 1495 1497 1499 1501 1503 1506 1509
1512 1511 1507 1503 1501 1499 1498 1497 1496 1495 1495 1494 1494 1495 1493 1494 1495 1495 1494 1492 1492 1492 1493 1491 1490 1489 1488 1486 1484 1486 1485 1484 1476 1451 1481 1483 1492 1494 1492 1495 1496 1498 1503
1509 1508 1507 1505 1502 1500 1498 1497 1497 1496 1495 1494 1492 1492 1490 1490 1490 1491 1490 1490 1488 1487 1486 1485 1485 1485 1485 1483 1479 1476 1478 1476 1476 1476 1480 1477 1479 1476 1478 1474 1484 1493 1496
1509 1508 1506 1505 1503 1501 1498 1497 1497 1496 1495 1494 1493 1492 1490 1487 1487 1487 1486 1486 1485 1484 1483 1482 1481 1481 1481 1481 1477 1473 1472 1473 1476 1475 1474 1469 1465 1449 1445 1468 1473 1482 1484
1507 1506 1506 1504 1502 1500 1499 1499 1498 1498 1497 1496 1493 1491 1490 1487 1485 1484 1483 1481 1481 1480 1479 1478 1477 1476 1476 1477 1475 1472 1469 1467 1468 1467 1465 1466 1463 1459 1462 1470 1470 1475 1478
1507 1505 1502 1502 1501 1500 1500 1498 1497 1497 1497 1495 1494 1492 1490 1487 1485 1482 1480 1479 1478 1476 1475 1474 1474 1472 1471 1472 1474 1476 1471 1466 1463 1463 1463 1464 1464 1462 1464 1466 1466 1468 1469
1506 1506 1503 1502 1501 1499 1499 1497 1496 1495 1494 1493 1491 1490 1489 1487 1484 1481 1480 1476 1475 1474 1472 1472 1470 1469 1468 1467 1467 1472 1471 1470 1468 1459 1458 1460 1461 1461 1461 1460 1460 1460 1461
1504 1504 1503 1503 1500 1499 1499 1497 1495 1493 1492 1490 1489 1487 1485 1484 1481 1478 1477 1474 1472 1471 1470 1468 1467 1465 1464 1464 1464 1464 1463 1463 1464 1463 1455 1453 1452 1454 1455 1454 1453 1451 1450
1504 1502 1501 1501 1500 1499 1498 1496 1493 1492 1490 1489 1486 1483 1481 1479 1478 1476 1475 1472 1469 1467 1466 1464 1463 1462 1461 1460 1460 1460 1460 1460 1459 1461 1457 1451 1448 1443 1444 1444 1445 1445 1446